Stations météo

Publicité
Luxeuil, France (7292): Température de l'air & dewpoint: 20.03.2019 17:00:00 - 26.03.2019 17:00:00 (CET)Luxeuil, France (7292): Température de l'air 5cm: 20.03.2019 17:00:00 - 26.03.2019 17:00:00 (CET)Luxeuil, France (7292): Température de l'air -20cm & Température de l'air -100cm: 20.03.2019 17:00:00 - 26.03.2019 17:00:00 (CET)Luxeuil, France (7292): Vitesse du vent & gusts: 20.03.2019 17:00:00 - 26.03.2019 17:00:00 (CET)Luxeuil, France (7292): Direction du vent: 20.03.2019 17:00:00 - 26.03.2019 17:00:00 (CET)Luxeuil, France (7292): reduced air pressure: 20.03.2019 17:00:00 - 26.03.2019 17:00:00 (CET)Luxeuil, France (7292): visibility: 20.03.2019 17:00:00 - 26.03.2019 17:00:00 (CET)Luxeuil, France (7292): Ensoleillement: 20.03.2019 17:00:00 - 26.03.2019 17:00:00 (CET)Luxeuil, France (7292): Quantités de précipitations: 20.03.2019 17:00:00 - 26.03.2019 17:00:00 (CET)
Date & Time tt [°C] td [°C] tt 5cm [°C] tt -20cm [°C] tt -100cm [°C] ff [km/h] ff [knt] fx [km/h] fx [knt] dd ppp [hPa] vv [km] sd [min] rr [mm]
26.03.2019 17:00:00 11,8 -2,4 16,5 8,9 8,6 18 10 36 20 N 1028,4 59 60 0,0
26.03.2019 16:00:00 12,3 -1,6 15,1 8,6 8,5 9 5 30 16 N 1028,8 49 49 0,0
26.03.2019 15:00:00 12,1 -1,8 13,8 8,4 8,6 11 6 30 16 N 1029,0 41 51 0,0
26.03.2019 14:00:00 10,9 -3,2 13,3 8,2 8,6 16 9 34 18 NE 1029,5 60 36 0,0
26.03.2019 13:00:00 11,1 -1,7 12,2 8,1 8,6 12 6 35 19 N 1030,0 60 29 0,0
26.03.2019 12:00:00 9,9 -0,3 10,2 8,0 8,5 8 4 33 18 ENE 1030,6 60 30 0,0
26.03.2019 11:00:00 8,0 -1,5 8,7 8,1 8,6 11 6 27 15 NNE 1031,2 60 0 0,0
26.03.2019 10:00:00 7,1 0,5 8,6 8,1 8,6 14 7 26 14 N 1031,0 57 0 0,0
26.03.2019 09:00:00 6,3 0,6 6,2 8,2 8,5 14 8 26 14 N 1030,9 52 10 0,0
26.03.2019 08:00:00 5,2 0,9 3,7 8,4 8,5 14 8 22 12 N 1031,0 46 20 0,0
26.03.2019 07:00:00 4,2 0,7 3,3 8,5 8,6 11 6 22 12 N 1030,6 41 0 0,0
26.03.2019 06:00:00 4,5 0,8 4,0 8,5 8,5 12 7 32 17 N 1030,2 39 0 0,0
26.03.2019 05:00:00 4,9 1,0 4,2 8,7 8,5 18 10 32 17 N 1030,0 42 0 0,0
26.03.2019 04:00:00 4,9 1,0 0,3 8,8 8,5 8 4 23 13 N 1029,3 47 0 0,0
26.03.2019 03:00:00 2,9 0,0 0,0 8,9 8,5 11 6 25 14 N 1029,3 42 0 0,0
26.03.2019 02:00:00 5,5 0,3 4,3 9,0 8,5 13 7 26 14 N 1028,4 59 0 0,0
26.03.2019 01:00:00 6,2 0,3 5,7 9,1 8,5 16 9 34 18 N 1028,4 60 0 0,0
26.03.2019 00:00:00 6,6 0,1 6,2 9,2 8,5 13 7 38 21 N 1028,3 60 0 0,0
25.03.2019 23:00:00 6,8 -0,9 5,7 9,2 8,5 16 8 27 15 N 1027,6 60 0 0,0
25.03.2019 22:00:00 6,9 -1,5 5,6 9,3 8,5 13 7 24 13 N 1027,4 60 0 0,0
25.03.2019 21:00:00 7,1 -2,1 6,1 9,3 8,5 9 5 23 12 NW 1027,1 59 0 0,0
25.03.2019 20:00:00 8,0 -2,6 6,8 9,3 8,5 13 7 37 20 NNW 1026,6 60 0 0,0
25.03.2019 19:00:00 8,4 -4,1 7,6 9,2 8,5 17 9 42 23 N 1025,9 60 24 0,0
25.03.2019 18:00:00 9,8 -3,5 9,9 9,1 8,4 17 9 41 22 NNW 1025,4 55 33 0,0
25.03.2019 17:00:00 10,0 -3,3 10,8 9,0 8,5 19 11 53 29 NNW 1025,0 60 30 0,0
25.03.2019 16:00:00 9,8 -3,5 10,7 8,8 8,4 14 8 42 23 NNE 1025,2 59 32 0,0
25.03.2019 15:00:00 10,1 -2,9 11,4 8,7 8,4 22 12 44 24 N 1025,1 56 18 0,0
25.03.2019 14:00:00 10,2 -2,2 10,7 8,7 8,4 16 9 34 18 NNW 1024,8 58 34 0,0
25.03.2019 13:00:00 8,9 0,8 8,8 8,6 8,4 17 9 35 19 NW 1025,9 42 0 0,0
25.03.2019 12:00:00 9,4 0,5 9,7 8,6 8,4 13 7 34 18 N 1026,0 58 1 0,0
25.03.2019 11:00:00 9,1 -0,8 9,9 8,7 8,4 10 6 22 12 NW 1026,0 48 32 0,0
25.03.2019 10:00:00 7,9 0,1 10,1 8,8 8,4 10 5 19 11 NNW 1026,0 40 36 0,0
25.03.2019 09:00:00 6,3 1,8 7,0 9,0 8,4 9 5 16 8 WNW 1026,0 16 60 0,0
25.03.2019 08:00:00 3,2 2,0 -0,4 9,2 8,4 6 3 9 5 WNW 1026,1 7 60 0,0
25.03.2019 07:00:00 0,3 -0,1 -2,5 9,4 8,4 7 4 13 7 NW 1026,3 5 9 0,0
25.03.2019 06:00:00 0,7 -0,2 -0,4 9,5 8,4 11 6 16 8 NW 1025,9 4,1 0 0,0
25.03.2019 05:00:00 2,0 0,5 1,3 9,7 8,4 5 3 10 5 WNW 1025,5 6 0 0,0
25.03.2019 04:00:00 2,7 1,5 2,3 9,9 8,4 8 5 11 6 NW 1025,4 4,5 0 0,0
25.03.2019 03:00:00 4,5 3,2 1,1 10,0 8,4 7 4 11 6 WNW 1025,0 5 0 0,0
25.03.2019 02:00:00 3,5 2,3 1,9 10,2 8,4 9 5 14 8 NW 1025,2 4,0 0 0,0
25.03.2019 01:00:00 3,9 2,6 1,3 10,3 8,4 8 5 13 7 NW 1025,1 4,2 0 0,0
25.03.2019 00:00:00 4,2 2,4 2,6 10,4 8,4 8 4 11 6 WNW 1025,2 4,1 0 0,0
24.03.2019 23:00:00 5,8 3,0 3,6 10,5 8,4 3 2 9 5 WSW 1025,0 6 0 0,0
24.03.2019 22:00:00 6,8 2,1 4,1 10,5 8,4 7 4 11 6 NW 1025,1 6 0 0,0
24.03.2019 21:00:00 10,3 3,3 5,9 10,5 8,3 5 3 15 8 NNW 1024,6 7 0 0,0
24.03.2019 20:00:00 11,8 4,0 9,8 10,3 8,4 8 4 18 10 N 1024,2 7 0 0,0
24.03.2019 19:00:00 13,2 4,1 11,8 10,1 8,4 10 5 29 15 N 1023,6 8 18 0,0
24.03.2019 18:00:00 15,5 4,5 16,7 9,8 8,3 16 9 32 17 N 1022,6 8 60 0,0
24.03.2019 17:00:00 17,0 3,6 17,9 9,5 8,3 15 8 26 14 WNW 1022,4 14 42 0,0
24.03.2019 16:00:00 17,5 4,1 20,1 9,1 8,3 14 8 32 18 W 1022,5 12 58 0,0
24.03.2019 15:00:00 17,3 4,3 22,2 8,8 8,3 13 7 30 16 W 1022,8 11 60 0,0
24.03.2019 14:00:00 16,8 3,5 21,8 8,4 8,3 11 6 27 14 WNW 1023,4 11 60 0,0
24.03.2019 13:00:00 16,0 3,7 20,3 8,3 8,3 9 5 21 12 WNW 1024,0 10 60 0,0
24.03.2019 12:00:00 14,8 5,3 18,0 8,2 8,3 13 7 23 13 W 1024,5 9 60 0,0
24.03.2019 11:00:00 12,4 4,6 16,3 8,3 8,3 8 4 16 9 W 1024,9 8 60 0,0
24.03.2019 10:00:00 10,3 4,2 11,6 8,4 8,2 4 2 8 4 W 1025,7 8 60 0,0
24.03.2019 09:00:00 6,0 4,0 6,1 8,6 8,3 3 2 9 5 W 1026,5 8 60 0,0
24.03.2019 08:00:00 2,5 1,0 -1,7 8,8 8,3 0 0 4 2 N 1026,7 7 60 0,0
24.03.2019 07:00:00 -1,0 -1,7 -2,6 9,0 8,3 2 1 5 3 WSW 1027,2 2,7 0 0,0
24.03.2019 06:00:00 -0,5 -1,1 -2,7 9,2 8,2 4 2 5 3 ESE 1027,1 5 0 0,0
24.03.2019 05:00:00 -0,8 -2,2 -2,0 9,5 8,2 4 2 5 3 SSW 1026,9 1,4 0 0,0
24.03.2019 04:00:00 1,6 0,7 -1,2 9,7 8,2 5 3 6 4 ENE 1026,3 8 0 0,0
24.03.2019 03:00:00 1,2 0,2 -0,7 9,9 8,2 3 1 5 3 SSW 1026,7 6 0 0,0
24.03.2019 02:00:00 2,5 0,4 0,3 10,1 8,3 0 0 6 3 N 1026,9 9 0 0,0
24.03.2019 01:00:00 2,4 -0,2 0,8 10,2 8,2 3 2 5 3 S 1027,2 9 0 0,0
24.03.2019 00:00:00 4,4 1,2 1,8 10,3 8,2 0 0 5 3 N 1027,3 13 0 0,0
23.03.2019 23:00:00 6,7 2,0 3,4 10,4 8,2 2 1 7 4 ESE 1026,9 11 0 0,0
23.03.2019 22:00:00 7,1 2,0 4,1 10,4 8,2 5 3 8 4 SSW 1027,3 9 0 0,0
23.03.2019 21:00:00 12,0 1,9 7,6 10,4 8,2 2 1 14 8 SW 1026,8 12 0 0,0
23.03.2019 20:00:00 13,1 1,7 7,8 10,2 8,2 5 3 11 6 N 1026,6 14 0 0,0
23.03.2019 19:00:00 15,1 0,9 12,5 9,9 8,2 6 4 20 11 NNW 1025,8 17 28 0,0
23.03.2019 18:00:00 17,4 0,9 19,5 9,6 8,2 13 7 21 12 N 1025,4 20 60 0,0
23.03.2019 17:00:00 18,6 -0,3 22,1 9,2 8,2 10 5 25 14 N 1025,4 19 60 0,0
23.03.2019 16:00:00 18,8 -0,1 23,8 8,7 8,2 16 9 29 15 N 1025,5 20 60 0,0
23.03.2019 15:00:00 18,6 -0,3 24,4 8,3 8,2 12 7 28 15 N 1025,9 19 60 0,0
23.03.2019 14:00:00 18,5 0,6 24,3 8,0 8,2 12 6 25 14 NW 1026,5 19 60 0,0
23.03.2019 13:00:00 17,8 -0,5 23,2 7,7 8,1 9 5 48 26 N 1027,2 19 60 0,0
23.03.2019 12:00:00 17,2 0,8 21,0 7,7 8,2 10 5 24 13 NW 1027,6 19 60 0,0
23.03.2019 11:00:00 14,5 3,3 18,1 7,7 8,1 8 5 14 8 W 1028,2 17 60 0,0
23.03.2019 10:00:00 12,3 2,4 12,6 7,8 8,1 3 2 8 4 SW 1029,0 19 60 0,0
23.03.2019 09:00:00 7,5 2,8 6,8 8,0 8,2 3 1 6 3 S 1029,6 19 60 0,0
23.03.2019 08:00:00 2,4 0,6 -1,3 8,2 8,2 0 0 7 4 N 1030,1 17 60 0,0
23.03.2019 07:00:00 -0,9 -1,3 -3,3 8,5 8,2 5 3 8 4 ESE 1030,3 19 5 0,0
23.03.2019 06:00:00 -0,8 -1,1 -4,4 8,7 8,2 8 5 10 5 ESE 1030,2 20 0 0,0
23.03.2019 05:00:00 -1,2 -2,0 -3,9 8,9 8,1 0 0 6 3 N 1030,1 10 0 0,0
23.03.2019 04:00:00 -0,5 -1,3 -2,3 9,1 8,1 6 3 8 4 SE 1030,2 15 0 0,0
23.03.2019 03:00:00 0,3 -0,6 -1,4 9,2 8,1 6 3 7 4 ESE 1030,0 18 0 0,0
23.03.2019 02:00:00 0,7 -0,6 -0,5 9,5 8,2 7 4 9 5 SE 1030,0 18 0 0,0
23.03.2019 01:00:00 3,9 0,2 2,3 9,6 8,1 2 1 9 5 SE 1029,5 18 0 0,0
23.03.2019 00:00:00 4,2 0,9 1,4 9,7 8,1 5 3 9 5 SE 1029,5 25 0 0,0
22.03.2019 23:00:00 3,8 1,2 1,9 9,8 8,1 6 3 8 5 SE 1029,6 22 0 0,0
22.03.2019 22:00:00 6,4 0,7 2,3 9,8 8,2 6 4 9 5 E 1029,3 32 0 0,0
22.03.2019 21:00:00 7,0 0,4 4,6 9,8 8,1 0 0 9 5 N 1029,0 20 0 0,0
22.03.2019 20:00:00 10,0 1,4 6,1 9,6 8,1 3 2 7 4 E 1028,5 30 0 0,0
22.03.2019 19:00:00 12,9 0,9 8,9 9,2 8,1 3 2 10 5 NNW 1027,9 24 26 0,0
22.03.2019 18:00:00 16,4 1,3 18,3 8,9 8,1 5 3 10 5 W 1027,3 45 60 0,0
22.03.2019 17:00:00 18,0 -0,3 22,1 8,4 8,1 3 1 13 7 S 1027,2 39 60 0,0
22.03.2019 16:00:00 18,2 -0,6 22,7 8,0 8,1 5 3 13 7 W 1027,5 36 60 0,0
22.03.2019 15:00:00 17,6 0,3 23,5 7,6 8,1 4 2 19 11 WSW 1028,0 19 60 0,0
22.03.2019 14:00:00 16,9 1,7 22,4 7,2 8,1 10 5 19 10 WNW 1028,3 19 60 0,0
22.03.2019 13:00:00 16,3 1,2 21,2 7,0 8,1 6 3 21 11 NNW 1028,8 19 60 0,0
22.03.2019 12:00:00 15,6 0,2 18,6 6,9 8,1 9 5 19 11 W 1029,3 20 60 0,0
22.03.2019 11:00:00 13,5 -0,2 15,1 6,9 8,1 9 5 20 11 SSE 1029,9 34 60 0,0
22.03.2019 10:00:00 11,1 0,2 11,0 7,1 8,1 14 8 25 13 SE 1030,5 44 60 0,0
22.03.2019 09:00:00 7,5 0,0 7,4 7,2 8,1 7 4 11 6 ENE 1030,9 20 60 0,0
22.03.2019 08:00:00 2,9 -1,1 -1,1 7,5 8,1 3 2 7 4 ESE 1031,4 20 60 0,0
22.03.2019 07:00:00 -1,5 -2,8 -4,1 7,7 8,1 0 0 8 4 N 1032,0 16 3 0,0
22.03.2019 06:00:00 -1,4 -2,2 -4,0 7,8 8,1 3 2 8 5 ENE 1031,5 25 0 0,0
22.03.2019 05:00:00 -1,5 -2,6 -4,9 8,1 8,1 3 2 8 5 N 1031,5 16 0 0,0
22.03.2019 04:00:00 -2,3 -4,2 -3,9 8,3 8,1 2 1 6 3 S 1031,2 20 0 0,0
22.03.2019 03:00:00 -1,5 -2,8 -3,0 8,5 8,1 4 2 13 7 E 1031,2 28 0 0,0
22.03.2019 02:00:00 -0,2 -1,5 -2,4 8,7 8,1 4 2 9 5 ESE 1031,1 21 0 0,0
22.03.2019 01:00:00 1,2 -1,0 -2,1 8,8 8,1 2 1 13 7 SSE 1031,3 20 0 0,0
22.03.2019 00:00:00 0,9 -1,8 -0,7 8,9 8,1 8 4 14 8 SE 1031,4 26 0 0,0
21.03.2019 23:00:00 3,5 -0,7 0,3 9,0 8,1 6 4 9 5 ESE 1031,2 38 0 0,0
21.03.2019 22:00:00 3,8 -0,8 1,2 9,0 8,1 5 3 8 5 E 1031,2 30 0 0,0
21.03.2019 21:00:00 7,4 -0,3 3,8 9,0 8,1 3 2 8 4 E 1030,7 28 0 0,0
21.03.2019 20:00:00 10,2 -2,2 6,6 8,8 8,1 4 2 9 5 NE 1030,3 60 0 0,0
21.03.2019 19:00:00 10,2 -2,2 8,8 8,5 8,1 10 5 17 9 SE 1029,9 59 25 0,0
21.03.2019 18:00:00 14,7 -1,8 17,0 8,1 8,1 10 5 19 10 SSE 1029,1 60 60 0,0
21.03.2019 17:00:00 15,6 -2,9 19,7 7,7 8,1 10 5 18 10 SSE 1028,9 50 60 0,0
21.03.2019 16:00:00 15,9 -2,6 21,5 7,2 8,1 7 4 19 10 SSE 1029,0 51 60 0,0
21.03.2019 15:00:00 15,2 -2,7 21,2 6,9 8,1 8 5 33 18 S 1029,5 49 60 0,0
21.03.2019 14:00:00 15,2 -1,8 19,9 6,5 8,1 6 3 16 9 S 1029,9 46 60 0,0
21.03.2019 13:00:00 13,3 -2,3 - 6,3 8,1 8 5 - - SSW 1030,6 60 - -
21.03.2019 12:00:00 - - - - - - - - - - - - - -
21.03.2019 11:00:00 10,7 -1,4 12,5 6,3 8,1 7 4 16 9 W 1031,9 19 60 0,0
21.03.2019 10:00:00 7,1 -1,1 9,8 6,4 8,1 7 4 14 7 WSW 1032,4 47 60 0,0
21.03.2019 09:00:00 5,8 -0,7 5,6 6,6 8,1 4 2 8 4 SW 1033,1 26 60 0,0
21.03.2019 08:00:00 1,2 -1,7 -3,5 6,7 8,1 2 1 5 3 NNE 1033,6 15 60 0,0
21.03.2019 07:00:00 -3,4 -4,8 -6,2 7,0 8,1 3 1 9 5 E 1034,0 20 1 0,0
21.03.2019 06:00:00 -2,8 -4,2 -5,0 7,2 8,1 0 0 7 4 N 1033,5 25 0 0,0
21.03.2019 05:00:00 -2,3 -3,9 -4,5 7,4 8,1 6 4 8 4 E 1033,3 26 0 0,0
21.03.2019 04:00:00 -1,5 -3,5 -4,0 7,6 8,1 2 1 6 3 SSE 1032,9 23 0 0,0
21.03.2019 03:00:00 -0,8 -3,2 -3,7 7,8 8,1 3 2 6 4 ESE 1033,1 21 0 0,0
21.03.2019 02:00:00 -0,3 -2,5 -3,7 8,0 8,1 3 2 10 5 ESE 1033,6 23 0 0,0
21.03.2019 01:00:00 -0,5 -3,2 -3,1 8,1 8,1 3 2 5 3 WSW 1033,9 16 0 0,0
21.03.2019 00:00:00 0,9 -2,5 -2,3 8,2 8,1 2 1 7 4 SSW 1034,0 24 0 0,0
20.03.2019 23:00:00 1,4 -2,2 -0,8 8,3 8,1 3 2 9 5 S 1033,8 20 0 0,0
20.03.2019 22:00:00 2,7 -3,2 0,0 8,3 8,1 5 3 9 5 S 1033,7 29 0 0,0
20.03.2019 21:00:00 7,2 -3,4 4,1 8,3 8,1 5 3 11 6 W 1033,1 51 0 0,0
20.03.2019 20:00:00 9,2 -4,1 8,0 8,1 8,1 8 5 20 11 ENE 1032,7 60 0 0,0
20.03.2019 19:00:00 10,8 -5,3 9,9 7,9 8,1 13 7 28 15 NE 1032,4 60 23 0,0
20.03.2019 18:00:00 12,8 -6,3 13,7 7,6 8,1 19 10 33 18 NNE 1031,3 59 60 0,0
20.03.2019 17:00:00 14,3 -5,0 18,2 7,2 8,1 18 10 34 19 NNE 1030,7 60 60 0,0

tt = Température de l'air
td = dewpoint
tt 5cm = Température de l'air 5cm
tt -20cm = Température de l'air -20cm
tt -100cm = Température de l'air -100cm
ff = Vitesse du vent
fx = gusts
dd = Direction du vent
ppp = reduced air pressure
vv = visibility
sd = Ensoleillement
rr = Quantités de précipitations

stations d'obs. à proximité